TimeICT,TemperatureF,Dew PointF,Humidity,Sea Level PressureIn,VisibilityMPH,Wind Direction,Wind SpeedMPH,Gust SpeedMPH,PrecipitationIn,Events,Conditions,WindDirDegrees,DateUTC
12:00 AM,77.0,77.0,100,29.89,4.3,Calm,Calm,-,N/A,,Scattered Clouds,0,2012-11-12 17:00:00
1:00 AM,77,76,95,29.86,4,Calm,Calm,,,,Mist,,2012-11-12 18:00:00
4:00 AM,77.0,77.0,100,29.80,3.7,Calm,Calm,-,N/A,,Mostly Cloudy,0,2012-11-12 21:00:00
6:00 AM,77.0,77.0,100,29.83,3.7,North,2.3,-,N/A,,Mostly Cloudy,360,2012-11-12 23:00:00
7:00 AM,77,76,95,29.83,4,Calm,Calm,,,,Mist,,2012-11-13 00:00:00
7:00 AM,78.8,77.0,94,29.83,5.0,North,4.6,-,N/A,,Mostly Cloudy,360,2012-11-13 00:00:00
8:00 AM,80.6,78.8,94,29.86,5.6,NNE,4.6,-,N/A,,Mostly Cloudy,20,2012-11-13 01:00:00
9:00 AM,84.2,78.8,84,29.89,6.2,NE,6.9,-,N/A,,Mostly Cloudy,50,2012-11-13 02:00:00
10:00 AM,87.8,78.8,75,29.86,6.2,ENE,8.1,-,N/A,,Mostly Cloudy,60,2012-11-13 03:00:00
11:00 AM,87.8,77.0,70,29.86,6.2,ENE,11.5,-,N/A,,Mostly Cloudy,70,2012-11-13 04:00:00
12:00 PM,89.6,77.0,66,29.83,6.2,NE,10.4,-,N/A,,Mostly Cloudy,50,2012-11-13 05:00:00
1:00 PM,90,75,54,29.82,5,NE,4.6,,,,Haze,40,2012-11-13 06:00:00
1:00 PM,89.6,75.2,62,29.80,6.2,ENE,11.5,-,N/A,,Mostly Cloudy,60,2012-11-13 06:00:00
2:00 PM,89.6,73.4,59,29.77,6.2,ENE,12.7,-,N/A,,Mostly Cloudy,60,2012-11-13 07:00:00
3:00 PM,89.6,73.4,59,29.74,6.2,ENE,13.8,-,N/A,,Mostly Cloudy,60,2012-11-13 08:00:00
4:00 PM,87.8,75.2,66,29.74,6.2,ENE,10.4,-,N/A,,Mostly Cloudy,60,2012-11-13 09:00:00
5:00 PM,87.8,75.2,66,29.77,6.2,NE,11.5,-,N/A,,Mostly Cloudy,50,2012-11-13 10:00:00
6:00 PM,84.2,75.2,74,29.77,6.2,NE,6.9,-,N/A,,Mostly Cloudy,50,2012-11-13 11:00:00
6:30 PM,84.2,75.2,74,29.80,6.2,NE,6.9,-,N/A,,Mostly Cloudy,50,2012-11-13 11:30:00
7:00 PM,83,76,73,29.80,5,Calm,Calm,,,,Mist,,2012-11-13 12:00:00
7:00 PM,82.4,77.0,84,29.80,5.0,North,3.5,-,N/A,,Mostly Cloudy,360,2012-11-13 12:00:00
8:00 PM,80.6,77.0,89,29.83,5.0,NW,3.5,-,N/A,,Scattered Clouds,320,2012-11-13 13:00:00
9:00 PM,78.8,77.0,94,29.86,5.0,NNW,3.5,-,N/A,,Scattered Clouds,330,2012-11-13 14:00:00